www.pogodaiklimat.ru

Погода и климат >> Архив погоды >> Бельгия >> Уккел


ПОГОДА в Уккеле

  • Прогноз погоды в Уккеле
  • Монитор погоды в Уккеле

АРХИВ ПОГОДЫ в Уккеле

Время (UTC), дата Ветер
(напр.,м/с)
 
Видим.   Явления Облачность Т
(С)
Тd
(С)
f
(%)
Тe
(С)
Тes
(С)
Комфортность P
(гПа)
Po
(гПа)
Тmin
(С)
Tmax
(С)
R
(мм)
R24
(мм)
S
(см)
13 13.06 Ю 5 н/о н/о +15.1 +13.6 91 +14 +14 1010.9 998.8 123
14 13.06 Ю 6 н/о н/о +16.2 +13.4 83 +15 +15 1010.5 998.5 189
15 13.06 Ю 6 н/о н/о +17.2 +9.8 62 +16 +16 1010.3 998.3 87
16 13.06 Ю 3 н/о н/о +15.1 +13.0 87 +14 +14 1010.4 998.3 72
17 13.06 Ю 7 н/о н/о +17.7 +9.5 59 +17 +17 1009.8 997.9 105
18 13.06 ЮЗ 4
{14}
н/о н/о +18.2 +9.7 58 +18 +18 1010.1 998.1 +18.3 71
19 13.06 З 3 н/о н/о +15.3 +12.9 86 +15 +15 1011.2 999.1 4
20 13.06 ЮЗ 2 н/о н/о +13.3 +12.1 92 +13 +13 1011.8 999.6 1
21 13.06 Ю 3 н/о н/о +12.8 +12.1 96 +11 +11 1012.4 1000.2
22 13.06 Ю 2 н/о н/о +12.9 +12.5 97 +12 +12 1013.0 1000.8
23 13.06 ЮВ 2 н/о н/о +11.6 +11.4 99 +10 +10 1012.9 1000.6
00 14.06 ЮВ 1
{10}
н/о н/о +11.1 +11.0 99 +11 +11 1013.0 1000.7 124
01 14.06 ЮВ 2 н/о н/о +10.7 +10.7 100 +9 +9 1012.3 1000.0
02 14.06 ЮВ 3 н/о н/о +10.5 +10.5 100 +8 +8 1012.1 999.8
03 14.06 ЮВ 3 н/о н/о +11.0 +11.0 100 +9 +9 1012.3 1000.0
04 14.06 ЮВ 2 н/о н/о +11.3 +11.3 100 +10 +10 1012.4 1000.1
05 14.06 ЮВ 2 н/о н/о +11.6 +11.6 100 +10 +10 1012.5 1000.2 4
06 14.06 Ю 4
{5}
н/о н/о +12.1 +12.1 100 +10 +10 1013.7 1001.5 +10.5 8
07 14.06 ЮВ 3 н/о н/о +13.0 +13.0 100 +11 +11 1012.9 1000.7 13
08 14.06 Ю 3 н/о н/о +15.1 +14.3 95 +14 +14 1012.7 1000.6 72
09 14.06 Ю 4
{10}
н/о н/о +17.3 +12.9 75 +17 +17 1013.5 1001.5 150
10 14.06 ЮЗ 4 н/о н/о +19.4 +13.1 67 +21 +21 комфорт 1013.9 1002.0 177
11 14.06 Ю 4 н/о н/о +20.6 +12.3 59 +23 +23 комфорт 1013.9 1002.0 230
13 14.06 Ю 4 н/о н/о +22.2 +12.9 56 +25 +25 комфорт 1013.6 1001.8 238
14 14.06 ЮЗ 4 н/о н/о +22.3 +12.2 53 +25 +25 комфорт 1013.1 1001.3 241
15 14.06 Ю 4 н/о н/о +22.8 +12.7 53 +26 +26 жарко 1012.6 1000.8 193
16 14.06 ЮЗ 2 н/о н/о +22.3 +12.0 52 +25 +25 комфорт 1012.3 1000.5 132
17 14.06 ЮЗ 2 н/о н/о +22.8 +12.4 52 +26 +26 жарко 1012.0 1000.2 119
18 14.06 ЮЗ 1
{10}
н/о н/о +22.4 +12.2 52 +25 +25 комфорт 1011.7 999.9 +23.0 82
19 14.06 З 1 н/о н/о +21.9 +12.5 55 +24 +24 комфорт 1011.8 999.9 37
20 14.06 СЗ 2 н/о н/о +21.1 +12.8 59 +23 +23 комфорт 1011.9 1000.0 6
21 14.06 С 3 н/о н/о +20.0 +13.5 66 +22 +22 комфорт 1012.1 1000.2
22 14.06 С 4 н/о н/о +18.6 +13.6 73 +19 +19 1011.9 999.9
23 14.06 С 4 н/о н/о +17.7 +13.2 75 +17 +17 1011.4 999.4
00 15.06 С 4 н/о н/о +17.1 +13.9 81 +17 +17 1010.4 998.4 195
01 15.06 СВ 1 н/о н/о +16.7 +13.4 81 +18 +18 1011.0 999.0
02 15.06 СЗ 3 н/о н/о +14.7 +13.9 95 +14 +14 1010.8 998.7
03 15.06 СЗ 4 н/о н/о +13.2 +13.0 99 +11 +11 1011.0 998.9
04 15.06 Ю 2 н/о н/о +13.0 +13.0 100 +12 +12 1011.2 999.0
05 15.06 н/о н/о +13.4 +13.4 100 1010.9 998.8 3
06 15.06 ЮЗ 1
{7}
н/о н/о +13.6 +13.6 100 +14 +14 1011.7 999.6 +12.8 4
07 15.06 Ю 1 н/о н/о +13.9 +13.9 100 +14 +14 1012.6 1000.4 10
08 15.06 ЮЗ 2 н/о н/о +14.4 +14.4 100 +14 +14 1013.0 1000.9 26
09 15.06 ЮЗ 3
{4}
н/о н/о +15.1 +15.1 100 +14 +14 1013.5 1001.4 45
10 15.06 ЮЗ 3 н/о н/о +15.7 +15.7 100 +15 +15 1014.1 1002.0 38
11 15.06 ЮЗ 3 н/о н/о +15.4 +15.1 98 +15 +15 1014.9 1002.8 41
12 15.06 З 3
{8}
н/о н/о +17.6 +15.4 87 +18 +18 1015.1 1003.1 175
13 15.06 З 2 н/о н/о +19.5 +15.0 75 +22 +22 комфорт 1015.0 1003.0 250
14 15.06 Ю 1 н/о н/о +20.5 +13.2 63 +24 +24 комфорт 1014.5 1002.6 221
15 15.06 ЮЗ 2 н/о н/о +20.5 +13.1 62 +23 +23 комфорт 1014.8 1002.9 151
16 15.06 ЮЗ 4 н/о н/о +21.8 +9.1 44 +23 +23 комфорт 1014.8 1002.9 157
17 15.06 ЮЗ 4 н/о н/о +21.5 +9.2 45 +23 +23 комфорт 1014.9 1003.0 106
18 15.06 СЗ 2
{10}
н/о н/о +19.8 +12.6 63 +22 +22 комфорт 1015.3 1003.3 +21.8 100
19 15.06 С 2 н/о н/о +17.8 +12.3 70 +18 +18 1015.4 1003.4 18
20 15.06 В 2 н/о н/о +16.1 +13.3 83 +16 +16 1015.9 1003.8 4
21 15.06 ЮВ 2 н/о н/о +14.8 +13.3 91 +14 +14 1016.3 1004.1
22 15.06 Ю 2 н/о н/о +14.3 +12.6 90 +14 +14 1016.5 1004.3
23 15.06 Ю 2 н/о н/о +13.8 +12.0 89 +13 +13 1017.2 1005.0
00 16.06 Ю 3 н/о н/о +12.9 +11.3 90 +11 +11 1017.7 1005.4 135
01 16.06 Ю 3 н/о н/о +12.9 +11.0 88 +11 +11 1017.8 1005.5
02 16.06 Ю 3 н/о н/о +13.4 +10.9 85 +12 +12 1017.7 1005.5
03 16.06 Ю 3 н/о н/о +13.4 +10.9 85 +12 +12 1018.1 1005.9
04 16.06 Ю 3 н/о н/о +12.7 +10.7 88 +11 +11 1018.2 1005.9
05 16.06 ЮЗ 3 н/о н/о +13.4 +11.5 88 +12 +12 1018.5 1006.3 8
06 16.06 ЮЗ 4
{8}
н/о н/о +14.7 +12.4 86 +13 +13 1018.7 1006.5 +12.6 38
07 16.06 ЮЗ 4 н/о н/о +15.8 +12.9 83 +15 +15 1019.1 1007.0 70
08 16.06 ЮЗ 4 н/о н/о +16.0 +13.1 83 +15 +15 1019.7 1007.5 80
09 16.06 ЮЗ 3
{10}
н/о н/о +16.8 +13.8 82 +17 +17 1019.8 1007.7 90
10 16.06 ЮЗ 4 н/о н/о +17.5 +12.6 73 +17 +17 1020.2 1008.1 147
11 16.06 ЮЗ 4 н/о н/о +17.8 +12.1 69 +18 +18 1020.4 1008.3 138
12 16.06 ЮЗ 3 н/о н/о +19.3 +12.5 65 +21 +21 комфорт 1020.2 1008.2 146
13 16.06 ЮЗ 4 н/о н/о +20.1 +10.8 55 +22 +22 комфорт 1020.1 1008.1 213
14 16.06 ЮЗ 3 н/о н/о +20.2 +11.5 57 +22 +22 комфорт 1020.3 1008.3 142
15 16.06 ЮЗ 3 н/о н/о +21.2 +11.4 54 +23 +23 комфорт 1020.0 1008.1 189
16 16.06 Ю 4 н/о н/о +20.8 +11.7 56 +23 +23 комфорт 1020.1 1008.1 115
17 16.06 ЮЗ 2 н/о н/о +18.1 +14.0 77 +19 +19 1020.7 1008.6 29
18 16.06 Ю 1
{8}
н/о н/о +18.0 +14.6 81 +19 +19 1020.6 1008.5 +21.2 38
19 16.06 Ю 2 н/о н/о +18.7 +12.7 68 +20 +20 1020.5 1008.4 47
20 16.06 Ю 1 н/о н/о +17.0 +14.3 84 +18 +18 1020.6 1008.5 7
21 16.06 ЮВ 2 н/о н/о +15.6 +14.3 92 +15 +15 1020.9 1008.7
22 16.06 ЮВ 2 н/о н/о +14.9 +14.2 96 +15 +15 1021.0 1008.8
23 16.06 ЮВ 2 н/о н/о +14.1 +13.6 97 +13 +13 1020.8 1008.6
00 17.06 ЮВ 2 н/о н/о +13.8 +13.5 98 +13 +13 1020.9 1008.6 150
01 17.06 ЮВ 2 н/о н/о +13.2 +12.9 98 +12 +12 1020.7 1008.4
02 17.06 ЮВ 3 н/о н/о +12.6 +12.4 99 +11 +11 1020.4 1008.1
03 17.06 ЮВ 3 н/о н/о +12.4 +12.2 99 +11 +11 1020.3 1008.0
04 17.06 ЮВ 3 н/о н/о +12.2 +12.1 99 +10 +10 1020.3 1008.0
05 17.06 ЮВ 2 н/о н/о +12.8 +12.8 100 +12 +12 1020.3 1008.0 6
06 17.06 Ю 3
{5}
н/о н/о +15.7 +14.1 90 +15 +15 1020.3 1008.1 +12.2 34
07 17.06 Ю 3 н/о н/о +18.3 +14.9 81 +19 +19 1020.3 1008.3 75
08 17.06 Ю 3 н/о н/о +20.0 +15.1 73 +23 +23 комфорт 1020.2 1008.2 125
09 17.06 Ю 4
{6}
н/о н/о +21.2 +14.4 65 +24 +24 комфорт 1020.0 1008.1 157
10 17.06 Ю 4 н/о н/о +22.4 +12.3 53 +25 +25 комфорт 1019.6 1007.7 179
11 17.06 Ю 3 н/о н/о +22.7 +12.1 51 +25 +25 комфорт 1019.3 1007.4 221
12 17.06 ЮВ 2 н/о н/о +22.9 +12.7 53 +26 +26 жарко 1019.0 1007.1 160
13 17.06 ЮЗ 3 н/о н/о +23.7 +11.9 48 +25 +25 комфорт 1018.5 1006.7 212
14 17.06 Ю 3 н/о н/о +24.5 +12.6 47 +26 +26 жарко 1018.0 1006.2 219
15 17.06 ЮЗ 2 н/о н/о +24.1 +11.5 45 +26 +26 жарко 1017.6 1005.8 176
16 17.06 З 2 н/о н/о +24.6 +11.7 44 +26 +26 жарко 1017.3 1005.5 158
17 17.06 ЮЗ 1 н/о н/о +24.5 +11.7 45 +26 +26 жарко 1016.9 1005.1 104
18 17.06 З 2
{6}
н/о н/о +24.7 +12.3 46 +26 +26 жарко 1016.7 1004.9 +24.9 94
19 17.06 З 2 н/о н/о +23.7 +11.8 47 +25 +25 комфорт 1016.5 1004.7 43
20 17.06 З 1 н/о н/о +20.8 +12.4 59 +24 +24 комфорт 1016.5 1004.6 4
21 17.06 С 1 н/о н/о +19.0 +12.8 67 +21 +21 комфорт 1016.6 1004.6
22 17.06 С 1 н/о н/о +17.8 +13.8 77 +19 +19 1016.6 1004.6
23 17.06 СВ 1 н/о н/о +17.3 +14.3 83 +18 +18 1016.7 1004.6
00 18.06 СВ 2 н/о н/о +16.6 +13.9 84 +17 +17 1016.5 1004.4 197
01 18.06 В 1 н/о н/о +16.2 +14.0 87 +17 +17 1016.0 1003.9
02 18.06 С 1 н/о н/о +15.7 +14.1 90 +16 +16 1015.7 1003.6
03 18.06 З 1 н/о н/о +15.1 +13.9 93 +16 +16 1015.5 1003.4
04 18.06 ЮЗ 1 н/о н/о +14.4 +13.7 96 +15 +15 1015.4 1003.2
05 18.06 СЗ 1 н/о н/о +15.3 +14.7 96 +16 +16 1015.5 1003.4 13
06 18.06 С 1
{3}
н/о н/о +16.7 +15.3 91 +18 +18 1015.4 1003.3 +14.4 33
07 18.06 В 1 н/о н/о +19.2 +16.1 82 +22 +22 комфорт 1015.3 1003.3 73
08 18.06 СВ 1 н/о н/о +21.2 +16.1 73 +25 +25 комфорт 1015.0 1003.1 99
09 18.06 СВ 2
{3}
н/о н/о +22.7 +16.1 66 +27 +27 душно 1014.6 1002.8 128
10 18.06 СВ 2 н/о н/о +24.0 +14.9 57 +27 +27 жарко 1014.4 1002.6 168
11 18.06 СВ 2 н/о н/о +25.0 +15.2 55 +28 +28 жарко 1013.9 1002.2 204
12 18.06 В 3 н/о н/о +26.3 +12.9 43 +28 +28 жарко 1013.5 1001.8 249
13 18.06 В 2 н/о н/о +25.8 +13.2 46 +28 +28 жарко 1013.2 1001.5 151
14 18.06 ЮВ 2 н/о н/о +26.3 +12.0 41 +28 +28 жарко 1012.6 1000.9 136
15 18.06 В 2 н/о н/о +26.8 +11.8 39 +28 +28 жарко 1011.9 1000.3 184
16 18.06 Ю 2 н/о н/о +26.8 +11.5 38 +28 +28 жарко 1011.3 999.7 140
17 18.06 ЮВ 3 н/о н/о +26.6 +12.5 42 +28 +28 жарко 1010.9 999.2 115
18 18.06 В 1
{6}
н/о н/о +25.6 +14.4 50 +28 +28 жарко 1010.5 998.9 +27.0 46
19 18.06 В 1 н/о н/о +24.0 +14.3 55 +27 +27 жарко 1010.8 999.1 21
20 18.06 В 1 н/о н/о +22.5 +15.2 63 +26 +26 жарко 1010.5 998.7 4
21 18.06 В 2 н/о н/о +20.6 +14.7 69 +24 +24 комфорт 1010.4 998.6
22 18.06 ЮВ 3 н/о н/о +19.5 +15.0 75 +22 +22 комфорт 1010.1 998.2
23 18.06 ЮВ 2 н/о н/о +18.4 +15.7 84 +20 +20 1009.5 997.6
00 19.06 ЮВ 2 н/о н/о +17.9 +15.1 84 +18 +18 1009.0 997.0 177
01 19.06 ЮВ 2 н/о н/о +17.2 +14.7 85 +18 +18 1008.4 996.4
02 19.06 ЮВ 3 н/о н/о +16.7 +14.5 87 +16 +16 1007.7 995.7
03 19.06 ЮВ 4 н/о н/о +17.6 +15.0 85 +17 +17 1007.0 995.1
04 19.06 ЮЗ 2 н/о н/о +18.5 +15.0 80 +20 +20 1006.9 995.0
05 19.06 СЗ 2 н/о н/о +18.9 +15.4 80 +21 +21 комфорт 1006.6 994.7 12
06 19.06 С 3
{7}
н/о н/о +20.0 +16.1 78 +23 +23 комфорт 1006.8 995.0 +16.7 39
07 19.06 С 2 н/о н/о +20.3 +14.8 71 +23 +23 комфорт 1007.2 995.4 50
08 19.06 СВ 4 н/о н/о +20.9 +14.5 67 +24 +24 комфорт 1007.2 995.4 101
09 19.06 В 2
{7}
н/о н/о +21.6 +15.3 67 +25 +25 комфорт 1007.3 995.5
10 19.06 Ю 3 н/о н/о +22.7 +16.8 69 +27 +27 душно 1007.4 995.6 80
11 19.06 Ю 1 н/о н/о +22.3 +16.9 71 +27 +27 душно 1007.0 995.3 50
12 19.06 Ю 3 н/о н/о +24.3 +15.9 59 +27 +27 жарко 1007.2 995.5 152
13 19.06 Ю 5 н/о н/о +26.5 +14.3 47 +29 +29 жарко 1006.5 995.0 240
14 19.06 ЮЗ 5 н/о н/о +24.5 +13.8 51 +27 +27 жарко 1007.1 995.3 125
15 19.06 Ю 4 н/о н/о +21.0 +20.0 94 +26 +26 душно 1006.7 995.0 99
16 19.06 З 6 н/о н/о +18.9 +16.6 87 +20 +20 1008.0 996.1 33
17 19.06 Ю 3 н/о н/о +18.0 +17.7 98 +18 +18 1007.2 995.3 30
18 19.06 ЮЗ 2
{19}
н/о н/о +19.5 +17.6 89 +22 +22 комфорт 1007.3 995.5 +27.2 86
19 19.06 Ю 4 н/о н/о +18.2 +17.4 95 +18 +18 1007.7 995.8 12
20 19.06 ЮЗ 2 н/о н/о +17.7 +17.2 97 +18 +18 1008.1 996.2 1
21 19.06 ЮЗ 2 н/о н/о +16.7 +16.2 97 +17 +17 1008.7 996.7
22 19.06 ЮЗ 2 н/о н/о +16.6 +16.2 97 +17 +17 1009.1 997.1
23 19.06 ЮЗ 2 н/о н/о +16.7 +16.5 99 +17 +17 1009.5 997.5
00 20.06 ЮЗ 2
{7}
н/о н/о +16.5 +16.5 100 +17 +17 1009.9 997.9 118
01 20.06 ЮЗ 2 н/о н/о +15.8 +15.7 99 +16 +16 1010.1 998.1
02 20.06 ЮЗ 3 н/о н/о +15.3 +15.2 99 +15 +15 1010.1 998.1
03 20.06 ЮЗ 3 н/о н/о +14.9 +14.8 99 +14 +14 1010.7 998.6
04 20.06 ЮЗ 2 н/о н/о +14.5 +14.3 99 +14 +14 1010.8 998.7
05 20.06 ЮЗ 3 н/о н/о +14.5 +14.4 99 +13 +13 1011.1 999.0 6
06 20.06 ЮЗ 3
{7}
н/о н/о +14.9 +14.3 96 +14 +14 1011.4 999.3 +14.4 15
07 20.06 ЮЗ 4 н/о н/о +15.6 +14.5 93 +15 +15 1011.5 999.4 31
08 20.06 ЮЗ 4 н/о н/о +16.3 +14.2 87 +16 +16 1011.8 999.7 62
09 20.06 ЮЗ 5
{9}
н/о н/о +16.8 +14.4 86 +16 +16 1012.0 1000.0 69
10 20.06 ЮЗ 4 н/о н/о +18.4 +14.5 78 +19 +19 1012.3 1000.3 101
11 20.06 З 4 н/о н/о +18.6 +13.9 74 +19 +19 1012.6 1000.6 120
12 20.06 З 3 н/о н/о +19.9 +13.7 67 +22 +22 комфорт 1012.6 1000.7 189
13 20.06 ЮЗ 4 н/о н/о +20.6 +12.6 60 +23 +23 комфорт 1012.6 1000.7 183

 

Местоположение метеостанции Уккел (Бельгия): широта 50.80 долгота 4.35 высота над уровнем моря 104 м.

В архиве по умолчанию представлена погода в Уккеле за последнюю неделю. Архивные данные за месяц целиком и за предыдущие месяцы, начиная с января 2011 года, Вы можете получить, выбрав интересующий диапазон дат из раскрывающегося списка и нажав кнопку "Ввод!".


*Определитесь, кто Вы:
робот инопланетянин человек

Внимание! Время в таблицах - всемирное. Для получения местного времени необходимо прибавить поправку, которая равна 1 ч.

Смотрите также архив погоды в соседних городах и на ближайших метеорологических станциях:

Погода в Брюсселе (Бельгия) (17 км)
Погода в Эрнаже (Бельгия) (27 км)
Погода в Бовешене (Бельгия) (30 км)
Погода в Шарлеруа (Бельгия) (37 км)
Погода в Мелле (Бельгия) (42 км)
Погода в Шьевре (Бельгия) (45 км)
Погода в Антверпене (Бельгия) (45 км)
Погода в Семмерзэйке (Бельгия) (50 км)
Погода в Шаффене (Бельгия) (55 км)
Погода в Генте (Бельгия) (56 км)

Пояснения к столбцам:

Ветер - указаны скорость ветра в м/с - средняя за 10 мин, порывы в срок и между сроками (в фигурных скобках) и направление, откуда дует ветер: С - северный, СВ - северо-восточный, В - восточный, ЮВ - юго-восточный, Ю - южный, ЮЗ - юго-западный, З - западный, СЗ - северо-западный.
Видимость - горизонтальная дальность видимости в метрах или километрах. При видимости от 1 до 10 км при отсутствии осадков обычно наблюдается дымка, при ухудшении видимости до 1 км и менее - туман. В сухую погоду видимость может ухудшаться дымом, пылью или мглою.
Явления - указаны атмосферные явления, наблюдавшиеся в срок или в последний час перед сроком; фигурными скобками обозначены явления, наблюдавшиеся между сроками (за 1-3 часа до срока); квадратными скобками обозначены град или гололедные отложения с указанием их диаметра в мм.
Облачность - указаны через наклонную черту общая и нижняя облачность в баллах и высота нижней границы облаков в метрах; квадратными скобками обозначены формы облаков: Ci - перистые, Cs - перисто-слоистые, Cc - перисто-кучевые, Ac - высококучевые, As - высокослоистые, Sc - слоисто-кучевые, Ns - слоисто-дождевые, Cu - кучевые, Cb - кучево-дождевые. Подробнее классификацию облаков см. в Атласе облаков (PDF).
T - Температура воздуха - температура, измеренная на высоте 2 м над землей.
Td - Температура точки росы - температура, при понижении до которой содержащийся в воздухе водяной пар достигнет насыщения.
f - Относительная влажность воздуха - влажноcть воздуха, измеренная на высоте 2 м над землей.
Te - Эффективная температура - температура, которую ощущает одетый по сезону человек в тени. Характеристика душности погоды. При расчете учитывается влияние влажности воздуха и скорости ветра на теплоощущения человека.
Tes - Эффективная температура на солнце - температура, которую ощущает человек, с поправкой на солнечный нагрев. Характеристика знойности погоды. Зависит от высоты солнца над горизонтом, облачности и скорости ветра. Ночью, в пасмурную погоду, а также при ветре 12 м/с и более поправка равна нулю.
P - Атмосферное давление - приведенное к уровню моря атмосферное давление.
Po - Атмосферное давление - измеренное на уровне метеостанции атмосферное давление.
Tmin - Минимальная температура - минимум температуры воздуха на высоте 2 м над землей.
Tmax - Максимальная температура - максимум температуры воздуха на высоте 2 м над землей.
R - Количество осадков - Количество выпавших осадков за период времени, мм. При наведении курсора мыши на число - период времени, за который выпало указанное количество осадков.
R24 - Количество осадков - Количество выпавших осадков за 24 часа, мм.
S - Снежный покров - Высота снежного покрова, см. При наведении курсора мыши на число - состояние снежного покрова и степень покрытия местности в баллах.